• In Moldova, Republic
  • List of Countries
  • For 7 days
  • Water Temperature
  • Satellite Maps
  • Weather Map
  • Weather Widgets
  • user-avatar
    Login

    Hourly Weather Nakhchivan

    Today, 29 May, Monday

    Time Temperature Precipitation Wind Pressure Humidity
    00:00 +19°C° 0 mm 2 mps 688 mmHg 37%
    01:00 +19°C° 0 mm 2 mps 688 mmHg 38%
    02:00 +19°C° 0 mm 1 mps 688 mmHg 39%
    03:00 +19°C° 0 mm 1 mps 688 mmHg 41%
    04:00 +19°C° 0 mm 1 mps 689 mmHg 40%
    05:00 +20°C° 0 mm 1 mps 689 mmHg 40%
    06:00 +21°C° 0 mm 1 mps 689 mmHg 40%
    07:00 +23°C° 0 mm 1 mps 689 mmHg 35%
    08:00 +24°C° 0 mm 1 mps 690 mmHg 31%
    09:00 +26°C° 0 mm 1 mps 690 mmHg 26%
    10:00 +28°C° 0 mm 1 mps 690 mmHg 24%
    11:00 +29°C° 0 mm 2 mps 690 mmHg 22%
    12:00 +30°C° 0 mm 2 mps 690 mmHg 20%
    13:00 +31°C° 0 mm 2 mps 690 mmHg 20%
    14:00 +31°C° 0 mm 3 mps 689 mmHg 19%
    15:00 +31°C° 0 mm 3 mps 689 mmHg 18%
    16:00 +31°C° 0 mm 3 mps 689 mmHg 19%
    17:00 +30°C° 0 mm 3 mps 689 mmHg 21%
    18:00 +30°C° 0 mm 3 mps 689 mmHg 23%
    19:00 +28°C° 0 mm 3 mps 689 mmHg 29%
    20:00 +26°C° 0 mm 3 mps 689 mmHg 35%
    21:00 +24°C° 0 mm 3 mps 689 mmHg 41%
    22:00 +23°C° 0 mm 2 mps 689 mmHg 44%
    23:00 +21°C° 0 mm 2 mps 689 mmHg 47%

    Tomorrow, 30 May, Tuesday

    Time Temperature Precipitation Wind Pressure Humidity
    00:00 +20°C° 0 mm 2 mps 688 mmHg 50%
    01:00 +20°C° 0 mm 2 mps 688 mmHg 51%
    02:00 +19°C° 0 mm 2 mps 688 mmHg 52%
    03:00 +20°C° 0 mm 1 mps 688 mmHg 53%
    04:00 +21°C° 0 mm 1 mps 688 mmHg 50%
    05:00 +21°C° 0 mm 1 mps 688 mmHg 48%
    06:00 +22°C° 0 mm 1 mps 689 mmHg 46%
    07:00 +24°C° 0 mm 1 mps 689 mmHg 40%
    08:00 +26°C° 0 mm 1 mps 689 mmHg 33%
    09:00 +28°C° 0 mm 1 mps 689 mmHg 26%
    10:00 +30°C° 0 mm 1 mps 689 mmHg 23%
    11:00 +31°C° 0 mm 1 mps 689 mmHg 20%
    12:00 +34°C° 0 mm 2 mps 689 mmHg 17%
    13:00 +34°C° 0 mm 2 mps 689 mmHg 16%
    14:00 +34°C° 0 mm 2 mps 688 mmHg 15%
    15:00 +35°C° 0 mm 3 mps 688 mmHg 14%
    16:00 +34°C° 0 mm 3 mps 688 mmHg 15%
    17:00 +33°C° 0 mm 3 mps 688 mmHg 16%
    18:00 +31°C° 0 mm 2 mps 687 mmHg 18%
    19:00 +29°C° 0 mm 2 mps 687 mmHg 21%
    20:00 +27°C° 0 mm 2 mps 687 mmHg 24%
    21:00 +25°C° 0 mm 2 mps 687 mmHg 26%
    22:00 +24°C° 0 mm 2 mps 687 mmHg 26%
    23:00 +23°C° 0 mm 1 mps 687 mmHg 26%

    Day after tomorrow, 31 May, Wednesday

    Time Temperature Precipitation Wind Pressure Humidity
    00:00 +23°C° 0 mm 1 mps 687 mmHg 26%
    01:00 +22°C° 0 mm 1 mps 687 mmHg 28%
    02:00 +22°C° 0 mm 1 mps 687 mmHg 29%
    03:00 +21°C° 0 mm 1 mps 687 mmHg 30%
    04:00 +22°C° 0 mm 1 mps 687 mmHg 31%
    05:00 +22°C° 0 mm 1 mps 687 mmHg 32%
    06:00 +23°C° 0 mm 1 mps 687 mmHg 33%
    07:00 +25°C° 0 mm 1 mps 687 mmHg 29%
    08:00 +27°C° 0 mm 1 mps 687 mmHg 24%
    09:00 +29°C° 0 mm 1 mps 687 mmHg 20%
    10:00 +30°C° 0 mm 1 mps 687 mmHg 19%
    11:00 +31°C° 0 mm 2 mps 686 mmHg 17%
    12:00 +32°C° 0 mm 2 mps 686 mmHg 16%
    13:00 +32°C° 0.1 mm 2 mps 685 mmHg 16%
    14:00 +32°C° 0.1 mm 2 mps 685 mmHg 16%
    15:00 +32°C° 0.1 mm 2 mps 684 mmHg 16%
    16:00 +31°C° 0.1 mm 2 mps 684 mmHg 19%
    17:00 +30°C° 0.1 mm 2 mps 684 mmHg 22%
    18:00 +29°C° 0.1 mm 2 mps 684 mmHg 24%
    19:00 +27°C° 0.1 mm 2 mps 684 mmHg 30%
    20:00 +25°C° 0.1 mm 2 mps 684 mmHg 36%
    21:00 +23°C° 0.1 mm 2 mps 685 mmHg 41%
    22:00 +23°C° 0.1 mm 2 mps 685 mmHg 43%
    23:00 +21°C° 0.1 mm 2 mps 685 mmHg 45%

    1 June, Thursday

    Time Temperature Precipitation Wind Pressure Humidity
    00:00 +21°C° 0.1 mm 1 mps 685 mmHg 46%
    01:00 +20°C° 0 mm 1 mps 685 mmHg 46%
    02:00 +20°C° 0 mm 1 mps 684 mmHg 46%
    03:00 +19°C° 0 mm 1 mps 684 mmHg 46%
    04:00 +20°C° 0 mm 1 mps 684 mmHg 44%
    05:00 +20°C° 0 mm 1 mps 685 mmHg 42%
    06:00 +21°C° 0 mm 1 mps 685 mmHg 40%
    07:00 +23°C° 0 mm 1 mps 685 mmHg 34%
    08:00 +24°C° 0 mm 1 mps 685 mmHg 28%
    09:00 +26°C° 0 mm 1 mps 685 mmHg 23%
    10:00 +27°C° 0 mm 1 mps 685 mmHg 21%
    11:00 +28°C° 0 mm 2 mps 685 mmHg 19%
    12:00 +29°C° 0 mm 2 mps 684 mmHg 17%
    13:00 +29°C° 0 mm 2 mps 684 mmHg 16%
    14:00 +30°C° 0 mm 2 mps 684 mmHg 15%
    15:00 +30°C° 0 mm 2 mps 684 mmHg 15%
    16:00 +30°C° 0 mm 2 mps 684 mmHg 16%
    17:00 +29°C° 0 mm 2 mps 684 mmHg 17%
    18:00 +28°C° 0 mm 2 mps 684 mmHg 19%
    19:00 +26°C° 0 mm 2 mps 684 mmHg 24%
    20:00 +24°C° 0 mm 2 mps 684 mmHg 29%
    21:00 +21°C° 0 mm 2 mps 685 mmHg 34%
    22:00 +21°C° 0 mm 2 mps 685 mmHg 37%
    23:00 +20°C° 0 mm 2 mps 685 mmHg 40%

    2 June, Friday

    Time Temperature Precipitation Wind Pressure Humidity
    00:00 +19°C° 0 mm 2 mps 685 mmHg 43%
    01:00 +18°C° 0 mm 2 mps 685 mmHg 45%
    02:00 +18°C° 0 mm 2 mps 685 mmHg 46%
    03:00 +17°C° 0 mm 2 mps 684 mmHg 48%
    04:00 +19°C° 0 mm 1 mps 685 mmHg 47%
    05:00 +19°C° 0 mm 1 mps 685 mmHg 47%
    06:00 +20°C° 0 mm 1 mps 686 mmHg 46%
    07:00 +21°C° 0 mm 1 mps 686 mmHg 41%
    08:00 +23°C° 0 mm 2 mps 686 mmHg 36%
    09:00 +25°C° 0 mm 2 mps 686 mmHg 31%
    10:00 +26°C° 0 mm 2 mps 686 mmHg 28%
    11:00 +27°C° 0 mm 2 mps 686 mmHg 25%
    12:00 +28°C° 0 mm 2 mps 686 mmHg 22%
    13:00 +29°C° 0 mm 2 mps 686 mmHg 21%
    14:00 +29°C° 0 mm 2 mps 685 mmHg 19%
    15:00 +30°C° 0 mm 2 mps 685 mmHg 18%
    16:00 +29°C° 0 mm 2 mps 685 mmHg 20%
    17:00 +29°C° 0 mm 3 mps 685 mmHg 21%
    18:00 +28°C° 0 mm 3 mps 686 mmHg 23%
    19:00 +26°C° 0 mm 3 mps 686 mmHg 29%
    20:00 +24°C° 0 mm 2 mps 686 mmHg 35%
    21:00 +21°C° 0 mm 2 mps 686 mmHg 41%
    22:00 +21°C° 0 mm 2 mps 686 mmHg 45%
    23:00 +20°C° 0 mm 2 mps 686 mmHg 48%

    3 June, Saturday

    Time Temperature Precipitation Wind Pressure Humidity
    00:00 +19°C° 0 mm 2 mps 686 mmHg 52%
    01:00 +18°C° 0 mm 2 mps 686 mmHg 54%
    02:00 +18°C° 0 mm 2 mps 686 mmHg 56%
    03:00 +17°C° 0 mm 2 mps 686 mmHg 59%
    04:00 +18°C° 0 mm 2 mps 686 mmHg 57%
    05:00 +18°C° 0 mm 2 mps 686 mmHg 56%
    06:00 +19°C° 0 mm 2 mps 687 mmHg 54%
    07:00 +21°C° 0 mm 2 mps 687 mmHg 48%
    08:00 +24°C° 0 mm 2 mps 687 mmHg 42%
    09:00 +25°C° 0 mm 2 mps 687 mmHg 36%
    10:00 +27°C° 0 mm 2 mps 687 mmHg 33%
    11:00 +28°C° 0 mm 2 mps 687 mmHg 30%
    12:00 +29°C° 0 mm 2 mps 687 mmHg 27%
    13:00 +29°C° 0.1 mm 2 mps 686 mmHg 26%
    14:00 +30°C° 0.1 mm 2 mps 686 mmHg 25%
    15:00 +30°C° 0.1 mm 2 mps 686 mmHg 24%
    16:00 +29°C° 0.1 mm 3 mps 686 mmHg 26%
    17:00 +29°C° 0.1 mm 3 mps 686 mmHg 28%
    18:00 +28°C° 0.1 mm 3 mps 686 mmHg 29%
    19:00 +26°C° 0.1 mm 3 mps 686 mmHg 35%
    20:00 +24°C° 0.1 mm 2 mps 686 mmHg 41%
    21:00 +23°C° 0.1 mm 2 mps 686 mmHg 47%
    22:00 +21°C° 0 mm 2 mps 686 mmHg 50%
    23:00 +20°C° 0 mm 2 mps 686 mmHg 53%
    Show more